Location: Baia de Cri?
(46.1667°N, 22.7167°E)
Time: 22:01:32
(UTC+00:00)

AQUARIUS - Pass Details

Date: 15 January 2026
Orbit: 633 x 636 km, 98.0° (Epoch: 10 February)

Event Time Altitude Azimuth Distance (km) Brightness Sun altitude
Rises 05:20:19 0° 13° (NNE) 2,944 7.4 -8.2°
Reaches altitude 10° 05:22:32 10° 13° (NNE) 2,030 6.6 -7.8°
Maximum altitude 05:26:58 88° 284° (WNW) 642 4.1 -7.1°
Drops below altitude 10° 05:31:21 10° 196° (SSW) 2,013 6.8 -6.4°
Sets 05:33:32 0° 196° (SSW) 2,916 7.6 -6.1°
